USA 254

Last updated on Jan. 16, 2021, 6:28 a.m. UTC

1 40100U 14043B   21014.57063090 -.00000182  00000-0  00000+0 0  9996
2 40100   1.0755  94.8262 0000394   5.5921  15.3391  1.00135369  7911
UTC
Height (km)
Latitude
Longitude
Inclination
Orbital Period
UTC large
Height (km)
Speed (km/s)
/
Latitude / Longitude
Inclination (degrees)
Orbital Period (minutes)
Azimuth
Elevation
Range (km)
Doppler Factor
iOS Compass Heading
iOS Angle

Next 30 passes for location: Hong Kong

Rise time Rise Azimuth (degrees) Set time Set Azimuth (degrees) Duration Max altitude (degrees)

No matching passes for this satellites